English version Home page |
Updated on September 27, 2024 |
|
軌道要素Epoch 2024 Mar. 31.0 TT = JDT 2460400.5 T 2024 Mar. 7.29413 TT Rudenko q 1.5266926 (2000.0) P Q n 0.17804480 Peri. 87.13954 -0.48878278 +0.86888363 a 3.1293192 Node 153.15014 -0.85337265 -0.45754111 e 0.5121327 Incl. 9.98483 -0.18123606 -0.18893747 P 5.54 >From 870 observations 1991 Sept. 8-2024 Feb. 24, mean residual 0".7. Nongravitational parameters A1 = +0.01, A2 = +0.0070.
|
星図
|
光度変化m1 = 9.5 + 5 logΔ + 20.0 log r(t - 100) [ ,-30] ( 〜2024年 2月 6日) m1 = 7.4 + 5 logΔ + 40 log r(t - 10) [-30, 40] (2024年 2月 6日〜2024年 4月16日) m1 = 10.5 + 5 logΔ + 15.0 log r(t + 100) [ 40, ] (2024年 4月16日〜 )
|
軌道要素はM.P.E.C. 2024-D126に掲載されたものです。
|